Starlink 31474

operational
NORAD ID: 59304 Int'l Des: 2024-056 Owner: SPXS Country: US Constellation: starlink
LEOCIRCULAR

关于 Starlink 31474

正在加载描述...

实时位置

正在加载3D地球...

即将过境

高度历史

Altitude vs Time

uPlot chart will show altitude changes over time

两行轨道根数

1 59304U 24056J 25259.04488597 .00010560 00000-0 39320-3 0 9998
2 59304 43.0054 130.1723 0000721 277.1112 82.9657 15.27538916 84520
Epoch: Sep 16, 2025 • Age: 19 hours

当前状态

高度 492.8 km
速度 7.62 km/s
星下点 -35.29°S, 145.94°E
发射日期 Mar 24, 2024
运行时间 1.4 years
类型 internet

技术详情

分类 Payload
质量 730.00 kg
干质量 700.00 kg
总质量 730.00 kg
长度 0.30 m
直径 4.10 m
跨度 29.00 m
形状 Box + pan
制造商 SPXS
平台类型 Starlink V2M
阶段状态 In Orbit
所有者/国家 SPXS/US

大型星座

Loading constellations...